Regional Weather Roundup
Issued by NWS

Home | Current Version | Previous Version | Graphics & Text | Print | Product List | Glossary On
Versions: 1 2 3 4 5 6 7 8 9 10 11 12 13 14 15 16 17 18 19 20 21 22 23 24 25 26 27 28 29 30 31 32 33 34 35 36 37 38 39 40 41 42 43 44 45 46 47 48 49 50
000
ASUS45 KABQ 291610
RWRNM
WEATHER ROUNDUP FOR NEW MEXICO
NATIONAL WEATHER SERVICE ALBUQUERQUE NM
900 AM MST THU JAN 29 2015

NOTE: "FAIR" MEANS FEW OR NO CLOUDS BELOW 12,000 FEET AGL WITH NO
       SIGNIFICANT WEATHER OR OBSTRUCTIONS TO VISION.

      THIS PRODUCT IS RELEASED AS TWO VERSIONS.  ONE VERSION NEAR
      THE TOP OF THE HOUR CONTAINING PRELIMINARY DATA FROM ALBUQUERQUE
      AND OTHER STATIONS.  A FINAL VERSION WITH ADDITIONAL DATA IS
      ISSUED ABOUT 10 MINUTES AFTER THE HOUR.

NMZ501-503-504-510>518-291700-
NORTHWEST PLATEAU/NORTHCENTRAL MOUNTAINS

CITY           SKY/WX    TMP DP  RH WIND       PRES   REMARKS
FARMINGTON     SUNNY     36  28  73 E8        30.36R WCI  30
LOS ALAMOS     CLOUDY    40  27  59 SW9       30.43R WCI  34
SANTA FE       CLOUDY    42  27  55 S16       30.41R
TAOS           CLOUDY    37  27  65 CALM      30.42S
ANGEL FIRE     FAIR      29  26  87 CALM      30.48R

$$
NMZ402-403-502-505>509-291700-
WESTCENTRAL MOUNTAINS/SOUTHWEST MOUNTAINS

CITY           SKY/WX    TMP DP  RH WIND       PRES   REMARKS
GALLUP         CLOUDY    40  31  70 CALM      30.34R
GRANTS         CLOUDY    38  32  80 S5        30.39R WCI  34
SILVER CITY    CLOUDY    50  36  57 N6        30.31R

$$
NMZ407-409-411-412-291700-
SOUTHERN DESERTS

CITY           SKY/WX    TMP DP  RH WIND       PRES   REMARKS
LORDSBURG      FAIR      50  34  53 S13G18    30.24R
DEMING         CLOUDY    53  34  48 E13       30.27R
LAS CRUCES     CLOUDY    51  38  60 CALM      30.30R
HOLLOMAN AFB   PTSUNNY   44  38  77 NE2       30.29R
ALAMOGORDO     PTSUNNY   46  36  66 SW3       30.30R
T OR C         CLOUDY    51  30  44 N18G28    30.31R

$$
NMZ519>523-291700-
CENTRAL VALLEYS/CENTRAL HIGHLANDS

CITY           SKY/WX    TMP DP  RH WIND       PRES   REMARKS
ALBUQUERQUE    CLOUDY    48  29  47 E26G37    30.38R
DOUBLE EAGLE   CLOUDY    46  28  49 E16       30.39R
MORIARTY ARPT  FAIR      43  29  57 E10G17    30.47R
CLINES CORNERS CLOUDY    37  28  70 E20       30.44R WCI  27
BELEN          FAIR      44  32  63 NW8       30.38R
SOCORRO        FAIR      50  31  48 N7        30.40R

$$
NMZ524>526-539-540-291700-
SOUTHCENTRAL MOUNTAINS

CITY           SKY/WX    TMP DP  RH WIND       PRES   REMARKS
RUIDOSO        CLOUDY    37  27  65 SE17G23   30.49R WCI  28

$$
NMZ527>531-291700-
NORTHEAST HIGHLANDS/NORTHEAST PLAINS

CITY           SKY/WX    TMP DP  RH WIND       PRES   REMARKS
LAS VEGAS      CLOUDY    37  29  72 NE13      30.49R WCI  29
RATON          CLOUDY    38  26  62 CALM      30.49R
CLAYTON        CLOUDY    42  28  57 N13       30.49R

$$
NMZ532>537-291700-
EASTCENTRAL PLAINS

CITY           SKY/WX    TMP DP  RH WIND       PRES   REMARKS
TUCUMCARI      CLOUDY    47  27  45 NE16      30.47R
CANNON AFB     CLOUDY    45  29  53 NE25G32   30.43R
CLOVIS AIRPORT PTSUNNY   45  30  57 NE22G29   30.44R

$$
NMZ028-029-538-291700-
SOUTHEAST PLAINS

CITY           SKY/WX    TMP DP  RH WIND       PRES   REMARKS
ROSWELL        PTSUNNY   49  33  54 N13       30.45R
ARTESIA        PTSUNNY   50  37  62 N17       30.45R
CARLSBAD       PTSUNNY   52  36  54 N17       30.40R
HOBBS          SUNNY     48  36  61 N18G25    30.38R


$$


USA.gov is the U.S. government's official web portal to all federal, state and local government web resources and services.